Regional Weather Roundup
Issued by NWS

Home | Current Version | Previous Version | Graphics & Text | Print | Product List | Glossary On
Versions: 1 2 3 4 5 6 7 8 9 10 11 12 13 14 15 16 17 18 19 20 21 22 23 24 25 26 27 28 29 30 31 32 33 34 35 36 37 38 39 40 41 42 43 44 45 46 47 48 49 50
000
ASUS43 KDMX 010208
RWRIA

WEATHER ROUNDUP FOR IOWA
NATIONAL WEATHER SERVICE DES MOINES IA
900 PM CDT TUE MAY 31 2016

NOTE: "FAIR" INDICATES FEW OR NO CLOUDS BELOW 12,000 FEET WITH NO
SIGNIFICANT WEATHER AND/OR OBSTRUCTIONS TO VISIBILITY.

* - THESE STATIONS ARE NOT NWS STATIONS...THUS NOT UNDER NWS
QUALITY CONTROL.  THEY ALSO DO NOT REPORT WEATHER SUCH
AS PRECIPITATION OR FOG.

IAZ001>003-012>014-020>022-031>034-043>046-010300-
   NORTHWEST IOWA

CITY           SKY/WX    TMP DP  RH WIND       PRES   REMARKS
CARROLL *      CLEAR     70  48  46 W3        29.92R
CHEROKEE *     CLEAR     63  54  72 CALM      29.91S
DENISON *      CLEAR     66  55  68 CALM      29.91S
LE MARS *      CLEAR     68  54  60 S7        29.90S
ORANGE CITY *  CLEAR     66  54  63 S5        29.90S
SHELDON *      CLEAR     64  50  59 S6        29.88S
SIOUX CITY     CLEAR     68  51  54 S7        29.90S
SPENCER        CLEAR     64  51  62 SW6       29.90S
STORM LAKE *   CLEAR     64  52  63 SW6       29.92F
$$

IAZ055>058-069>071-079>083-090>094-010300-
   SOUTHWEST IOWA

CITY           SKY/WX    TMP DP  RH WIND       PRES   REMARKS
ATLANTIC *     CLEAR     68  59  73 CALM      29.93R
AUDUBON *      CLEAR     64  55  72 CALM      29.94S
CLARINDA *       N/A     70  63  78 MISG      29.94R
COUNCIL BLFS * CLEAR     70  54  56 CALM      29.94R
CRESTON *      CLEAR     68  66  94 SE6       29.95R
HARLAN  *      CLEAR     66  54  63 NW3       29.97R
LAMONI         PTCLDY    66  64  93 NW8       29.92R
RED OAK *      CLEAR     68  57  68 NW3       29.93S
SHENANDOAH *   CLEAR     72  61  68 N3        29.93S
$$

IAZ047>049-059>061-072>074-084-010300-
   CENTRAL IOWA

CITY           SKY/WX    TMP DP  RH WIND       PRES   REMARKS
AMES           CLOUDY    66  65  96 CALM      29.90S
ANKENY *         N/A     66  66 100 MISG      29.91R
BOONE *        CLEAR     68  61  77 CALM      29.90S
CHARITON *     PTCLDY    66  64  94 CALM      29.92R
DES MOINES     MOCLDY    69  63  81 CALM      29.91R
GRINNELL*      CLOUDY    66  63  88 CALM      29.91R
KNOXVILLE *    MOCLDY    68  63  83 SE3       29.91R
MARSHALLTOWN   MOCLDY    66  64  93 CALM      29.90R
NEWTON *       CLOUDY    66  66 100 CALM      29.91R
PELLA *        CLOUDY    66  64  94 CALM      29.93
PERRY *          N/A     70  64  83 W6        29.91S
$$

IAZ004>006-015-016-023>025-035-036-010300-
   NORTH CENTRAL IOWA

CITY           SKY/WX    TMP DP  RH WIND       PRES   REMARKS
ALGONA *       CLEAR     66  57  72 W7        29.91R
CLARION *      CLEAR     68  63  83 CALM      29.91R
ESTHERVILLE    CLEAR     65  54  67 SW5       29.89S
FORT DODGE *   CLEAR     63  52  67 CALM      29.91S
MASON CITY     CLOUDY    64  59  83 CALM      29.91R
FOREST CITY *  CLEAR     63  59  88 S3        29.90R
WEBSTER CITY * CLEAR     68  63  83 CALM      29.89S
IOWA FALLS *     N/A     66  63  88 NW3       29.92R
$$

IAZ007>011-017>019-026>030-037>042-050>054-066-010300-
   NORTHEAST IOWA

CITY           SKY/WX    TMP DP  RH WIND       PRES   REMARKS
CEDAR RAPIDS   RAIN      65  65 100 CALM      29.91R FOG
CHARLES CITY * PTCLDY    64  64 100 CALM      29.90S
CLINTON *      CLOUDY    70  65  84 SE12      29.92R
DECORAH *      CLOUDY    63  63 100 E3        29.89F
DUBUQUE        CLOUDY    68  64  87 SE7       29.91R
MONTICELLO *   LGT RAIN  66  64  94 N9        29.91S
OELWEIN *      MOCLDY    64 N/A N/A E5        29.91R
WATERLOO       CLOUDY    65  63  93 SE3       29.88S
$$

IAZ064-065-067-068-078-010300-
   EAST CENTRAL IOWA

CITY           SKY/WX    TMP DP  RH WIND       PRES   REMARKS
DAVENPORT      RAIN      70  65  84 E10       29.92R
IOWA CITY      HVY RAIN  68  65  90 N15       29.92R FOG
MT. PLEASANT * PTCLDY    75  63  66 SE3       29.90R
MUSCATINE *    CLOUDY    73  64  73 CALM      29.90R
QUAD CITIES    CLOUDY    70  65  84 E5        29.90R
$$

IAZ062-063-075>077-085>089-095>099-010300-
   SOUTHEAST IOWA

CITY           SKY/WX    TMP DP  RH WIND       PRES   REMARKS
BURLINGTON     CLOUDY    74  65  73 S6        29.90R
FAIRFIELD *      N/A    N/A N/A N/A MISG        N/A
FORT MADISON * MOCLDY    73  64  73 SE3       29.91S
KEOKUK *       PTCLDY    73  64  73 S5        29.89S
OSKALOOSA *      N/A     68  64  88 CALM      29.90S
OTTUMWA        LGT RAIN  66  63  90 SW9       29.91R
WASHINGTON *   CLOUDY    70 -38   1 NW14G23   29.93R
$$

ABBREVIATIONS USED IN REMARKS
   TC - TEMPERATURES IN CELSIUS
  WCI - WIND CHILL INDEX
   HX - HEAT INDEX
  VSB - VISIBILITY
$$





USA.gov is the U.S. government's official web portal to all federal, state and local government web resources and services.